Notices

What's New in latest Release from April 7th, 2021:

- Updated Glossary, including Speed of Maximum Gust, and Total Hourly Precipitation

- Updated national and regional climate services offices contacts and prices information

- Addition of station inventory lists for 1981-2010, 1971-2000, and 1961-1990 Normals.

If you haven't already, please take our survey and provide feedback about our website: https://eccc.sondage-survey.ca/f/LanguageSelection.aspx?s=442ca660-fcf1-47c0-95a9-59707d6fd709

Hourly Data Report for August 09, 2017

TORONTO CITY
ONTARIO

43°40'00.000" N
79°24'00.000" W
112.50 m
6158355
71508
XTO

Download Data

Hourly Data (August 2017)
Hourly Data Report for August 9, 2017
TIME
LST
Temp Definition
°C
Dew Point Definition
°C
Rel Hum Definition
%
Precip. Amount Definition
mm

Wind Dir Definition
10's deg

Wind Spd Definition
km/h
Visibility Definition
km
Stn Press Definition
kPa
Hmdx Definition


Wind Chill Definition


Weather Definition


00:00 20.2 13.3 65 0.0 LegendMM LegendMM   100.53     LegendNANA
01:00 19.8 13.1 65 0.0 LegendMM LegendMM   100.52     LegendNANA
02:00 19.2 13.2 68 0.0 LegendMM LegendMM   100.53     LegendNANA
03:00 18.4 13.6 73 0.0 LegendMM LegendMM   100.56     LegendNANA
04:00 18.9 12.9 68 0.0 LegendMM LegendMM   100.58     LegendNANA
05:00 17.5 13.2 76 0.0 LegendMM LegendMM   100.63     LegendNANA
06:00 17.4 13.2 77 0.0 LegendMM LegendMM   100.66     LegendNANA
07:00 19.3 13.6 70 0.0 LegendMM LegendMM   100.70     LegendNANA
08:00 21.3 13.8 62 0.0 LegendMM LegendMM   100.72 25   LegendNANA
09:00
10:00
11:00
12:00 25.8 16.9 58 0.0 LegendMM LegendMM   100.72 31   LegendNANA
13:00 26.8 14.7 47 0.0 LegendMM LegendMM   100.67 31   LegendNANA
14:00 27.5 13.6 43 0.0 LegendMM LegendMM   100.62 31   LegendNANA
15:00 26.9 12.8 42 0.0 LegendMM LegendMM   100.60 30   LegendNANA
16:00 27.1 11.3 37 0.0 LegendMM LegendMM   100.61 29   LegendNANA
17:00 26.7 13.1 43 0.0 LegendMM LegendMM   100.63 30   LegendNANA
18:00 25.9 13.8 47 0.0 LegendMM LegendMM   100.65 29   LegendNANA
19:00 25.0 14.1 51 0.0 LegendMM LegendMM   100.69 28   LegendNANA
20:00 22.9 13.8 56 0.0 LegendMM LegendMM   100.73 26   LegendNANA
21:00 21.8 13.4 59 0.0 LegendMM LegendMM   100.78 25   LegendNANA
22:00 21.0 14.4 66 0.0 LegendMM LegendMM   100.82 25   LegendNANA
23:00 20.1 14.9 72 0.0 LegendMM LegendMM   100.82     LegendNANA

Notes on Data Quality.

Legend

  • E = Estimated
  • M = Missing
  • NA = Not Available*
  • [empty] = Indicates an unobserved value
Date modified: